STARLINK-34505

Last updated on Thu Jul 03 2025 00:02:07 GMT+0000 (Coordinated Universal Time)

1 64490U 25133U 25183.58335648 -.01228703 00000+0 -60352-2 0 9990 2 64490 53.1551 210.7675 0000978 66.0293 311.8323 15.84067061 2701
UTC large
Height (km)
Speed (km/s)
/
Latitude / Longitude
Inclination (degrees)
Orbital Period (minutes)
Azimuth
Elevation
Range (km)
Doppler Factor

Next 0 passes for location: London (51.5072 / 0.1276)

Sorry there are no passes over London.